Location: �clusier
(49.9361°N, 2.7869°E)
Time: 06:11:02
(UTC+00:00)

Cosmos 2016 Rocket - Pass Details

Date: 01 November 2021
Orbit: 947 x 1000 km, 83.0° (Epoch: 05 December)

Event Time Altitude Azimuth Distance (km) Brightness Sun altitude
Rises 03:40:49 0° 0° (N) 3,631 7.1 -28.9°
Reaches altitude 10° 03:44:58 10° 27° (NNE) 2,683 6.7 -28.2°
Maximum altitude 03:47:45 13° 55° (NE) 2,456 6.8 -27.8°
Drops below altitude 10° 03:50:31 10° 82° (E) 2,685 7.3 -27.4°
Sets 03:54:39 0° 109° (ESE) 3,635 7.9 -26.7°
